,,,PA_Meas_PMT16A,,PR_Meas_QMR101_102,,RH_Meas_QMH101,,SR_Meas_QMS101,,TA_Meas_QMH101,,GenWind,,GenWind,
date,time,status,PA,status,PR,status,RH,status,SR,status,TA,status,DirAvg,status,SpdAvg,
2008-11-22, 00:00:05,VALID,1003.06,VALID,0,VALID,94.0412,VALID,0.100563,VALID,23.6823,VALID,25,VALID,0,
2008-11-22, 00:01:05,VALID,1003.05,VALID,0,VALID,94.0412,VALID,0.100563,VALID,23.7035,VALID,25,VALID,0,
2008-11-22, 00:02:05,VALID,1003.02,VALID,0,VALID,94.0794,VALID,0,VALID,23.7035,VALID,25,VALID,0,
2008-11-22, 00:03:05,VALID,1003.02,VALID,0,VALID,94.1328,VALID,0,VALID,23.6841,VALID,25,VALID,0,
2008-11-22, 00:04:04,VALID,1003.01,VALID,0,VALID,94.1633,VALID,0.100563,VALID,23.6628,VALID,25,VALID,0,
2008-11-22, 00:05:04,VALID,1002.97,VALID,0,VALID,94.1938,VALID,0,VALID,23.6841,VALID,25,VALID,0,
2008-11-22, 00:06:04,VALID,1002.99,VALID,0,VALID,94.2243,VALID,0,VALID,23.6628,VALID,25,VALID,0,
2008-11-22, 00:07:04,VALID,1002.97,VALID,0,VALID,94.2548,VALID,0.100563,VALID,23.6841,VALID,25,VALID,0,
2008-11-22, 00:08:04,VALID,1002.97,VALID,0,VALID,94.2853,VALID,0,VALID,23.6841,VALID,25,VALID,0,
2008-11-22, 00:09:04,VALID,1002.94,VALID,0,VALID,94.2777,VALID,0,VALID,23.6434,VALID,25,VALID,0,
2008-11-22, 00:10:04,VALID,1002.94,VALID,0,VALID,94.3158,VALID,0,VALID,23.6452,VALID,25,VALID,0,
2008-11-22, 00:11:04,VALID,1002.93,VALID,0,VALID,94.3464,VALID,0.100563,VALID,23.6452,VALID,25,VALID,0,
2008-11-22, 00:12:04,VALID,1002.93,VALID,0,VALID,94.354,VALID,0.100563,VALID,23.6239,VALID,25,VALID,0,
2008-11-22, 00:13:04,VALID,1002.93,VALID,0,VALID,94.3235,VALID,0.100563,VALID,23.6239,VALID,25,VALID,0,
2008-11-22, 00:14:04,VALID,1002.91,VALID,0,VALID,94.3769,VALID,0.100563,VALID,23.6044,VALID,25,VALID,0,
2008-11-22, 00:15:04,VALID,1002.87,VALID,0,VALID,94.3769,VALID,0,VALID,23.6062,VALID,25,VALID,0,
2008-11-22, 00:16:04,VALID,1002.89,VALID,0,VALID,94.3845,VALID,0.100563,VALID,23.585,VALID,25,VALID,0,
2008-11-22, 00:17:04,VALID,1002.84,VALID,0,VALID,94.3235,VALID,0,VALID,23.585,VALID,25,VALID,0,
2008-11-22, 00:18:04,VALID,1002.83,VALID,0,VALID,94.354,VALID,0,VALID,23.585,VALID,25,VALID,0,
2008-11-22, 00:19:04,VALID,1002.8,VALID,0,VALID,94.3998,VALID,0,VALID,23.5868,VALID,25,VALID,0,
2008-11-22, 00:20:04,VALID,1002.8,VALID,0,VALID,94.4532,VALID,0,VALID,23.5655,VALID,25,VALID,0,
2008-11-22, 00:21:04,VALID,1002.78,VALID,0,VALID,94.4989,VALID,0.100563,VALID,23.585,VALID,25,VALID,0.302344,
2008-11-22, 00:22:04,VALID,1002.76,VALID,0,VALID,94.5829,VALID,0.100563,VALID,23.6062,VALID,25,VALID,0.165625,
2008-11-22, 00:23:04,VALID,1002.75,VALID,0,VALID,94.5447,VALID,0.100563,VALID,23.585,VALID,25,VALID,0,
2008-11-22, 00:24:04,VALID,1002.73,VALID,0,VALID,94.5676,VALID,0,VALID,23.5655,VALID,25,VALID,0.247656,
2008-11-22, 00:25:04,VALID,1002.7,VALID,0,VALID,94.5752,VALID,0.100563,VALID,23.585,VALID,25,VALID,0.375,
2008-11-22, 00:26:04,VALID,1002.68,VALID,0,VALID,94.6134,VALID,0.100563,VALID,23.5655,VALID,25,VALID,0.297266,
2008-11-22, 00:27:04,VALID,1002.7,VALID,0,VALID,94.6363,VALID,0.100563,VALID,23.5655,VALID,25,VALID,0.310547,
2008-11-22, 00:28:04,VALID,1002.73,VALID,0,VALID,94.6591,VALID,0,VALID,23.5655,VALID,25,VALID,0.218359,
2008-11-22, 00:29:04,VALID,1002.71,VALID,0,VALID,94.682,VALID,0,VALID,23.5655,VALID,25,VALID,0.189063,
2008-11-22, 00:30:04,VALID,1002.7,VALID,0,VALID,94.7125,VALID,0.100563,VALID,23.5655,VALID,25,VALID,0.167187,
2008-11-22, 00:31:04,VALID,1002.73,VALID,0,VALID,94.7202,VALID,0.100563,VALID,23.5868,VALID,25,VALID,0.178906,
2008-11-22, 00:32:04,VALID,1002.7,VALID,0,VALID,94.7431,VALID,0.100563,VALID,23.5868,VALID,25,VALID,0.210547,
2008-11-22, 00:33:04,VALID,1002.68,VALID,0,VALID,94.7812,VALID,0.100563,VALID,23.5655,VALID,25,VALID,0.271094,
2008-11-22, 00:34:04,VALID,1002.67,VALID,0,VALID,94.8117,VALID,0.100563,VALID,23.585,VALID,25,VALID,0.317187,
2008-11-22, 00:35:04,VALID,1002.68,VALID,0,VALID,94.7965,VALID,0.100563,VALID,23.5868,VALID,25,VALID,0.339063,
2008-11-22, 00:36:04,VALID,1002.69,VALID,0,VALID,94.8117,VALID,0.100563,VALID,23.5655,VALID,25,VALID,0.3125,
2008-11-22, 00:37:04,VALID,1002.68,VALID,0,VALID,94.7888,VALID,0,VALID,23.5266,VALID,25,VALID,0.383984,
2008-11-22, 00:38:04,VALID,1002.67,VALID,0,VALID,94.8422,VALID,0.100563,VALID,23.5266,VALID,25,VALID,0.308984,
2008-11-22, 00:39:04,VALID,1002.7,VALID,0,VALID,94.8956,VALID,0,VALID,23.5266,VALID,21,VALID,0.484375,
2008-11-22, 00:40:04,VALID,1002.68,VALID,0,VALID,94.949,VALID,0.100563,VALID,23.546,VALID,14,VALID,0.399219,
2008-11-22, 00:41:04,VALID,1002.7,VALID,0,VALID,95.0177,VALID,0.100563,VALID,23.5655,VALID,10,VALID,0.508594,
2008-11-22, 00:42:04,VALID,1002.71,VALID,0,VALID,95.0482,VALID,0.100563,VALID,23.585,VALID,9,VALID,0.400781,
2008-11-22, 00:43:04,VALID,1002.68,VALID,0,VALID,95.0253,VALID,0.100563,VALID,23.5637,VALID,9,VALID,0.405469,
2008-11-22, 00:44:04,VALID,1002.69,VALID,0,VALID,94.9948,VALID,0.100563,VALID,23.6257,VALID,9,VALID,0.339063,
2008-11-22, 00:45:04,VALID,1002.67,VALID,0,VALID,94.9872,VALID,0,VALID,23.6257,VALID,9,VALID,0.102344,
2008-11-22, 00:46:04,VALID,1002.66,VALID,0,VALID,94.9567,VALID,0,VALID,23.6044,VALID,9,VALID,0,
2008-11-22, 00:47:04,VALID,1002.65,VALID,0,VALID,94.9338,VALID,0.100563,VALID,23.6257,VALID,9,VALID,0,
2008-11-22, 00:48:04,VALID,1002.62,VALID,0,VALID,94.9262,VALID,0.100563,VALID,23.6044,VALID,9,VALID,0,
2008-11-22, 00:49:04,VALID,1002.61,VALID,0,VALID,94.9185,VALID,0.100563,VALID,23.6062,VALID,8,VALID,0,
2008-11-22, 00:50:04,VALID,1002.56,VALID,0,VALID,94.9948,VALID,0,VALID,23.6062,VALID,8,VALID,0,
2008-11-22, 00:51:04,VALID,1002.59,VALID,0,VALID,94.9948,VALID,0.100563,VALID,23.6044,VALID,9,VALID,0,
2008-11-22, 00:52:04,VALID,1002.56,VALID,0,VALID,94.9796,VALID,0.100563,VALID,23.6044,VALID,9,VALID,0,
2008-11-22, 00:53:04,VALID,1002.54,VALID,0,VALID,94.949,VALID,0.100563,VALID,23.6044,VALID,9,VALID,0,
2008-11-22, 00:54:04,VALID,1002.53,VALID,0,VALID,94.9567,VALID,0.100563,VALID,23.6823,VALID,9,VALID,0,
2008-11-22, 00:55:04,VALID,1002.54,VALID,0,VALID,94.9185,VALID,0.100563,VALID,23.6044,VALID,9,VALID,0,
2008-11-22, 00:56:04,VALID,1002.55,VALID,0,VALID,94.8804,VALID,0,VALID,23.585,VALID,9,VALID,0,
2008-11-22, 00:57:04,VALID,1002.52,VALID,0,VALID,94.8728,VALID,0.100563,VALID,23.5655,VALID,9,VALID,0,
2008-11-22, 00:58:04,VALID,1002.52,VALID,0,VALID,94.9262,VALID,0.100563,VALID,23.6062,VALID,9,VALID,0,
2008-11-22, 00:59:04,VALID,1002.51,VALID,0,VALID,94.8956,VALID,0,VALID,23.5655,VALID,9,VALID,0,
2008-11-22, 01:00:04,VALID,1002.52,VALID,0,VALID,94.9109,VALID,0,VALID,23.5868,VALID,8,VALID,0.255859,
2008-11-22, 01:01:04,VALID,1002.49,VALID,0,VALID,94.9567,VALID,0.100563,VALID,23.5655,VALID,353,VALID,0.394141,
2008-11-22, 01:02:04,VALID,1002.49,VALID,0,VALID,94.9567,VALID,0.100563,VALID,23.5655,VALID,355,VALID,0.36875,
2008-11-22, 01:03:04,VALID,1002.45,VALID,0,VALID,94.9643,VALID,0.100563,VALID,23.5673,VALID,355,VALID,0,
2008-11-22, 01:04:04,VALID,1002.46,VALID,0,VALID,94.9719,VALID,0.100563,VALID,23.5673,VALID,355,VALID,0.0855469,
2008-11-22, 01:05:04,VALID,1002.45,VALID,0,VALID,94.9262,VALID,0.100563,VALID,23.5655,VALID,355,VALID,0,
2008-11-22, 01:06:04,VALID,1002.44,VALID,0,VALID,94.9185,VALID,0.100563,VALID,23.546,VALID,355,VALID,0,
2008-11-22, 01:07:04,VALID,1002.43,VALID,0,VALID,94.9414,VALID,0.100563,VALID,23.546,VALID,355,VALID,0,
2008-11-22, 01:08:04,VALID,1002.4,VALID,0,VALID,94.949,VALID,0.100563,VALID,23.546,VALID,355,VALID,0,
2008-11-22, 01:09:04,VALID,1002.41,VALID,0,VALID,94.9643,VALID,0.100563,VALID,23.5478,VALID,355,VALID,0,
2008-11-22, 01:10:04,VALID,1002.42,VALID,0,VALID,94.8956,VALID,0,VALID,23.5284,VALID,355,VALID,0,
2008-11-22, 01:11:04,VALID,1002.42,VALID,0,VALID,94.8956,VALID,0,VALID,23.4877,VALID,355,VALID,0,
2008-11-22, 01:12:04,VALID,1002.39,VALID,0,VALID,94.9338,VALID,0.100563,VALID,23.4682,VALID,355,VALID,0,
2008-11-22, 01:13:04,VALID,1002.38,VALID,0,VALID,94.9567,VALID,0.100563,VALID,23.4894,VALID,355,VALID,0,
2008-11-22, 01:14:04,VALID,1002.38,VALID,0,VALID,95.0177,VALID,0.100563,VALID,23.4682,VALID,355,VALID,0.391016,
2008-11-22, 01:15:04,VALID,1002.37,VALID,0,VALID,95.0864,VALID,0.100563,VALID,23.4894,VALID,355,VALID,0.657812,
2008-11-22, 01:16:04,VALID,1002.38,VALID,0,VALID,95.0406,VALID,0.100563,VALID,23.4877,VALID,354,VALID,0.623828,
2008-11-22, 01:17:04,VALID,1002.36,VALID,0,VALID,95.0406,VALID,0,VALID,23.4894,VALID,353,VALID,0.593359,
2008-11-22, 01:18:04,VALID,1002.35,VALID,0,VALID,94.9719,VALID,0,VALID,23.47,VALID,353,VALID,0.483203,
2008-11-22, 01:19:04,VALID,1002.36,VALID,0,VALID,94.9948,VALID,0,VALID,23.4293,VALID,353,VALID,0.405859,
2008-11-22, 01:20:04,VALID,1002.34,VALID,0,VALID,95.0558,VALID,0,VALID,23.4505,VALID,353,VALID,0.444922,
2008-11-22, 01:21:04,VALID,1002.32,VALID,0,VALID,95.0253,VALID,0,VALID,23.4098,VALID,353,VALID,0.385938,
2008-11-22, 01:22:04,VALID,1002.36,VALID,0,VALID,95.0558,VALID,0,VALID,23.4311,VALID,353,VALID,0.387891,
2008-11-22, 01:23:04,VALID,1002.37,VALID,0,VALID,95.0787,VALID,0,VALID,23.4311,VALID,353,VALID,0.342187,
2008-11-22, 01:24:04,VALID,1002.35,VALID,0,VALID,95.1321,VALID,0,VALID,23.4505,VALID,353,VALID,0.269141,
2008-11-22, 01:25:04,VALID,1002.36,VALID,0,VALID,95.1169,VALID,0.100563,VALID,23.4505,VALID,353,VALID,0,
2008-11-22, 01:26:04,VALID,1002.37,VALID,0,VALID,95.1016,VALID,0.100563,VALID,23.4505,VALID,353,VALID,0.140625,
2008-11-22, 01:27:04,VALID,1002.38,VALID,0,VALID,95.094,VALID,0,VALID,23.4293,VALID,353,VALID,0.322656,
2008-11-22, 01:28:04,VALID,1002.37,VALID,0,VALID,95.0482,VALID,0,VALID,23.4116,VALID,353,VALID,0.359375,
2008-11-22, 01:29:04,VALID,1002.34,VALID,0,VALID,95.1169,VALID,0.100563,VALID,23.4116,VALID,353,VALID,0.290234,
2008-11-22, 01:30:04,VALID,1002.35,VALID,0,VALID,95.1321,VALID,0.100563,VALID,23.4098,VALID,353,VALID,0.0113281,
2008-11-22, 01:31:04,VALID,1002.35,VALID,0,VALID,95.1855,VALID,0.100563,VALID,23.4098,VALID,353,VALID,0.244922,
2008-11-22, 01:32:04,VALID,1002.33,VALID,0,VALID,95.2237,VALID,0.100563,VALID,23.408,VALID,352,VALID,0.516016,
2008-11-22, 01:33:04,VALID,1002.28,VALID,0,VALID,95.2008,VALID,0.100563,VALID,23.47,VALID,348,VALID,0.462109,
2008-11-22, 01:34:04,VALID,1002.29,VALID,0,VALID,95.2161,VALID,0.100563,VALID,23.4894,VALID,348,VALID,0.491797,
2008-11-22, 01:35:04,VALID,1002.29,VALID,0,VALID,95.2771,VALID,0.100563,VALID,23.5284,VALID,357,VALID,0.640234,
2008-11-22, 01:36:04,VALID,1002.28,VALID,0,VALID,95.3,VALID,0,VALID,23.546,VALID,354,VALID,0.587891,
2008-11-22, 01:37:04,VALID,1002.23,VALID,0,VALID,95.3076,VALID,0.100563,VALID,23.5868,VALID,349,VALID,0.710156,
2008-11-22, 01:38:04,VALID,1002.24,VALID,0,VALID,95.2771,VALID,0.100563,VALID,23.6044,VALID,343,VALID,0.539063,
2008-11-22, 01:39:04,VALID,1002.24,VALID,0,VALID,95.2008,VALID,0,VALID,23.6062,VALID,343,VALID,0.455469,
2008-11-22, 01:40:04,VALID,1002.19,VALID,0,VALID,95.1474,VALID,0,VALID,23.585,VALID,343,VALID,0.425391,
2008-11-22, 01:41:04,VALID,1002.22,VALID,0,VALID,95.0787,VALID,0.100563,VALID,23.585,VALID,343,VALID,0.425391,
2008-11-22, 01:42:04,VALID,1002.17,VALID,0,VALID,95.0558,VALID,0.100563,VALID,23.5868,VALID,343,VALID,0.374609,
2008-11-22, 01:43:04,VALID,1002.12,VALID,0,VALID,95.0558,VALID,0.100563,VALID,23.5655,VALID,343,VALID,0.207031,
2008-11-22, 01:44:04,VALID,1002.09,VALID,0,VALID,95.0711,VALID,0,VALID,23.546,VALID,343,VALID,0.215234,
2008-11-22, 01:45:04,VALID,1002.07,VALID,0,VALID,95.0711,VALID,0.100563,VALID,23.546,VALID,343,VALID,0.223047,
2008-11-22, 01:46:04,VALID,1002.05,VALID,0,VALID,95.0635,VALID,0,VALID,23.5673,VALID,343,VALID,0.0957031,
2008-11-22, 01:47:04,VALID,1002.01,VALID,0,VALID,95.0711,VALID,0.100563,VALID,23.5266,VALID,343,VALID,0.01875,
2008-11-22, 01:48:04,VALID,1001.98,VALID,0,VALID,95.0787,VALID,0.100563,VALID,23.5071,VALID,343,VALID,0.16875,
2008-11-22, 01:49:04,VALID,1001.96,VALID,0,VALID,95.0482,VALID,0.100563,VALID,23.5071,VALID,343,VALID,0.303906,
2008-11-22, 01:50:04,VALID,1001.96,VALID,0,VALID,95.0482,VALID,0.100563,VALID,23.5089,VALID,343,VALID,0,
2008-11-22, 01:51:04,VALID,1001.95,VALID,0,VALID,95.033,VALID,0,VALID,23.4894,VALID,343,VALID,0,
2008-11-22, 01:52:04,VALID,1001.95,VALID,0,VALID,95.1016,VALID,0.100563,VALID,23.4682,VALID,343,VALID,0,
2008-11-22, 01:53:04,VALID,1001.96,VALID,0,VALID,95.1703,VALID,0,VALID,23.4877,VALID,343,VALID,0,
2008-11-22, 01:54:04,VALID,1001.96,VALID,0,VALID,95.2008,VALID,0.100563,VALID,23.5089,VALID,354,VALID,0,
2008-11-22, 01:55:04,VALID,1001.95,VALID,0,VALID,95.1321,VALID,0.100563,VALID,23.5071,VALID,356,VALID,0,
2008-11-22, 01:56:04,VALID,1001.94,VALID,0,VALID,95.1169,VALID,0.100563,VALID,23.5071,VALID,356,VALID,0,
2008-11-22, 01:57:04,VALID,1001.96,VALID,0,VALID,95.0864,VALID,0,VALID,23.4894,VALID,356,VALID,0,
2008-11-22, 01:58:04,VALID,1001.95,VALID,0,VALID,95.1169,VALID,0,VALID,23.4877,VALID,356,VALID,0,
2008-11-22, 01:59:04,VALID,1001.92,VALID,0,VALID,95.1321,VALID,0.100563,VALID,23.4877,VALID,356,VALID,0,
2008-11-22, 02:00:04,VALID,1001.92,VALID,0,VALID,95.1474,VALID,0.100563,VALID,23.4877,VALID,356,VALID,0,
2008-11-22, 02:01:04,VALID,1001.93,VALID,0,VALID,95.1398,VALID,0,VALID,23.5089,VALID,356,VALID,0,
2008-11-22, 02:02:04,VALID,1001.94,VALID,0,VALID,95.155,VALID,0.100563,VALID,23.5071,VALID,356,VALID,0,
2008-11-22, 02:03:04,VALID,1001.93,VALID,0,VALID,95.1703,VALID,0,VALID,23.5284,VALID,356,VALID,0,
2008-11-22, 02:04:04,VALID,1001.94,VALID,0,VALID,95.1321,VALID,0.100563,VALID,23.5071,VALID,356,VALID,0,
2008-11-22, 02:05:04,VALID,1001.96,VALID,0,VALID,95.0253,VALID,0.100563,VALID,23.4877,VALID,356,VALID,0,
2008-11-22, 02:06:04,VALID,1001.88,VALID,0,VALID,94.9872,VALID,0.100563,VALID,23.4487,VALID,356,VALID,0,
2008-11-22, 02:07:04,VALID,1001.93,VALID,0,VALID,95.0482,VALID,0.100563,VALID,23.4505,VALID,356,VALID,0,
2008-11-22, 02:08:04,VALID,1001.92,VALID,0,VALID,95.0711,VALID,0,VALID,23.4505,VALID,356,VALID,0,
2008-11-22, 02:09:04,VALID,1001.89,VALID,0,VALID,95.155,VALID,0,VALID,23.4487,VALID,356,VALID,0,
2008-11-22, 02:10:04,VALID,1001.9,VALID,0,VALID,95.1398,VALID,0.100563,VALID,23.4894,VALID,356,VALID,0,
2008-11-22, 02:11:04,VALID,1001.87,VALID,0,VALID,95.1016,VALID,0.100563,VALID,23.47,VALID,356,VALID,0,
2008-11-22, 02:12:04,VALID,1001.85,VALID,0,VALID,95.0406,VALID,0,VALID,23.4098,VALID,356,VALID,0,
2008-11-22, 02:13:04,VALID,1001.85,VALID,0,VALID,95.0177,VALID,0,VALID,23.4116,VALID,356,VALID,0,
2008-11-22, 02:14:04,VALID,1001.82,VALID,0,VALID,95.1321,VALID,0.100563,VALID,23.4116,VALID,356,VALID,0.455859,
2008-11-22, 02:15:04,VALID,1001.82,VALID,0,VALID,95.2389,VALID,0.100563,VALID,23.4293,VALID,356,VALID,0.689844,
2008-11-22, 02:16:04,VALID,1001.81,VALID,0,VALID,95.2466,VALID,0,VALID,23.4505,VALID,356,VALID,0.483203,
2008-11-22, 02:17:04,VALID,1001.78,VALID,0,VALID,95.2771,VALID,0,VALID,23.4487,VALID,356,VALID,0.470703,
2008-11-22, 02:18:04,VALID,1001.76,VALID,0,VALID,95.2313,VALID,0,VALID,23.4293,VALID,356,VALID,0.573438,
2008-11-22, 02:19:04,VALID,1001.73,VALID,0,VALID,95.2313,VALID,0.100563,VALID,23.4293,VALID,356,VALID,0.328516,
2008-11-22, 02:20:04,VALID,1001.76,VALID,0,VALID,95.2161,VALID,0.100563,VALID,23.4098,VALID,356,VALID,0.391406,
2008-11-22, 02:21:04,VALID,1001.75,VALID,0,VALID,95.2084,VALID,0,VALID,23.4311,VALID,356,VALID,0.320313,
2008-11-22, 02:22:04,VALID,1001.75,VALID,0,VALID,95.2923,VALID,0.100563,VALID,23.4311,VALID,356,VALID,0.396094,
2008-11-22, 02:23:04,VALID,1001.73,VALID,0,VALID,95.361,VALID,0,VALID,23.4487,VALID,356,VALID,0.153125,
2008-11-22, 02:24:04,VALID,1001.72,VALID,0,VALID,95.3686,VALID,0,VALID,23.47,VALID,356,VALID,0.0765625,
2008-11-22, 02:25:04,VALID,1001.75,VALID,0,VALID,95.3229,VALID,0.100563,VALID,23.4682,VALID,356,VALID,0,
2008-11-22, 02:26:04,VALID,1001.74,VALID,0,VALID,95.3,VALID,0.100563,VALID,23.4487,VALID,356,VALID,0,
2008-11-22, 02:27:04,VALID,1001.73,VALID,0,VALID,95.2847,VALID,0.100563,VALID,23.4487,VALID,356,VALID,0,
2008-11-22, 02:28:04,VALID,1001.75,VALID,0,VALID,95.3534,VALID,0,VALID,23.47,VALID,356,VALID,0,
2008-11-22, 02:29:04,VALID,1001.72,VALID,0,VALID,95.3457,VALID,0.100563,VALID,23.4682,VALID,356,VALID,0,
2008-11-22, 02:30:04,VALID,1001.74,VALID,0,VALID,95.3076,VALID,0,VALID,23.4487,VALID,356,VALID,0.155078,
2008-11-22, 02:31:04,VALID,1001.75,VALID,0,VALID,95.2466,VALID,0,VALID,23.4293,VALID,356,VALID,0,
2008-11-22, 02:32:04,VALID,1001.75,VALID,0,VALID,95.2237,VALID,0,VALID,23.4098,VALID,356,VALID,0,
2008-11-22, 02:33:04,VALID,1001.76,VALID,0,VALID,95.2618,VALID,0,VALID,23.4116,VALID,356,VALID,0,
2008-11-22, 02:34:04,VALID,1001.78,VALID,0,VALID,95.3,VALID,0,VALID,23.4116,VALID,356,VALID,0,
2008-11-22, 02:35:04,VALID,1001.78,VALID,0,VALID,95.3,VALID,0,VALID,23.4116,VALID,356,VALID,0.346484,
2008-11-22, 02:36:04,VALID,1001.77,VALID,0,VALID,95.2695,VALID,0,VALID,23.3904,VALID,356,VALID,0.330859,
2008-11-22, 02:37:04,VALID,1001.79,VALID,0,VALID,95.3076,VALID,0,VALID,23.3921,VALID,356,VALID,0.317578,
2008-11-22, 02:38:04,VALID,1001.79,VALID,0,VALID,95.3,VALID,0.100563,VALID,23.3709,VALID,356,VALID,0.238672,
2008-11-22, 02:39:04,VALID,1001.76,VALID,0,VALID,95.3686,VALID,0.100563,VALID,23.3709,VALID,356,VALID,0,
2008-11-22, 02:40:04,VALID,1001.74,VALID,0,VALID,95.3686,VALID,0.100563,VALID,23.3904,VALID,356,VALID,0.158984,
2008-11-22, 02:41:04,VALID,1001.71,VALID,0,VALID,95.3305,VALID,0,VALID,23.3727,VALID,356,VALID,0,
2008-11-22, 02:42:04,VALID,1001.7,VALID,0,VALID,95.3152,VALID,0.100563,VALID,23.3727,VALID,356,VALID,0,
2008-11-22, 02:43:04,VALID,1001.7,VALID,0,VALID,95.3305,VALID,0.100563,VALID,23.332,VALID,356,VALID,0,
2008-11-22, 02:44:04,VALID,1001.67,VALID,0,VALID,95.3686,VALID,0,VALID,23.3727,VALID,356,VALID,0,
2008-11-22, 02:45:04,VALID,1001.68,VALID,0,VALID,95.3839,VALID,0,VALID,23.3921,VALID,356,VALID,0,
2008-11-22, 02:46:04,VALID,1001.67,VALID,0,VALID,95.3991,VALID,0,VALID,23.3921,VALID,356,VALID,0,
2008-11-22, 02:47:04,VALID,1001.71,VALID,0,VALID,95.3763,VALID,0,VALID,23.3727,VALID,356,VALID,0,
2008-11-22, 02:48:04,VALID,1001.68,VALID,0,VALID,95.3763,VALID,0,VALID,23.3727,VALID,356,VALID,0,
2008-11-22, 02:49:04,VALID,1001.69,VALID,0,VALID,95.3839,VALID,0,VALID,23.3727,VALID,356,VALID,0,
2008-11-22, 02:50:04,VALID,1001.7,VALID,0,VALID,95.3839,VALID,0,VALID,23.3727,VALID,356,VALID,0,
2008-11-22, 02:51:04,VALID,1001.69,VALID,0,VALID,95.3991,VALID,0,VALID,23.3514,VALID,356,VALID,0,
2008-11-22, 02:52:04,VALID,1001.71,VALID,0,VALID,95.4144,VALID,0,VALID,23.3727,VALID,1,VALID,0,
2008-11-22, 02:53:04,VALID,1001.69,VALID,0,VALID,95.3534,VALID,0,VALID,23.3532,VALID,1,VALID,0,
2008-11-22, 02:54:04,VALID,1001.73,VALID,0,VALID,95.3534,VALID,0,VALID,23.2754,VALID,1,VALID,0,
2008-11-22, 02:55:04,VALID,1001.73,VALID,0,VALID,95.4144,VALID,0,VALID,23.3143,VALID,1,VALID,0,
2008-11-22, 02:56:04,VALID,1001.73,VALID,0,VALID,95.4526,VALID,0,VALID,23.3337,VALID,1,VALID,0,
2008-11-22, 02:57:04,VALID,1001.74,VALID,0,VALID,95.5365,VALID,0,VALID,23.3532,VALID,1,VALID,0,
2008-11-22, 02:58:04,VALID,1001.74,VALID,0,VALID,95.5441,VALID,0,VALID,23.3921,VALID,1,VALID,0,
2008-11-22, 02:59:04,VALID,1001.76,VALID,0,VALID,95.5365,VALID,0,VALID,23.3921,VALID,1,VALID,0,
2008-11-22, 03:00:04,VALID,1001.76,VALID,0,VALID,95.5975,VALID,0,VALID,23.4311,VALID,1,VALID,0,
2008-11-22, 03:01:04,VALID,1001.73,VALID,0,VALID,95.4983,VALID,0,VALID,23.4116,VALID,1,VALID,0,
2008-11-22, 03:02:04,VALID,1001.75,VALID,0,VALID,95.5594,VALID,0,VALID,23.4311,VALID,360,VALID,0.366406,
2008-11-22, 03:03:04,VALID,1001.75,VALID,0,VALID,95.5441,VALID,0,VALID,23.4505,VALID,360,VALID,0.328516,
2008-11-22, 03:04:04,VALID,1001.74,VALID,0,VALID,95.567,VALID,0.100563,VALID,23.4487,VALID,360,VALID,0.289844,
2008-11-22, 03:05:04,VALID,1001.73,VALID,0,VALID,95.567,VALID,0,VALID,23.4894,VALID,360,VALID,0.217578,
2008-11-22, 03:06:04,VALID,1001.71,VALID,0,VALID,95.5594,VALID,0,VALID,23.4894,VALID,360,VALID,0.255469,
2008-11-22, 03:07:04,VALID,1001.73,VALID,0,VALID,95.5899,VALID,0,VALID,23.4877,VALID,360,VALID,0.334766,
2008-11-22, 03:08:04,VALID,1001.7,VALID,0,VALID,95.5594,VALID,0.100563,VALID,23.5071,VALID,360,VALID,0.344531,
2008-11-22, 03:09:04,VALID,1001.68,VALID,0,VALID,95.5136,VALID,0,VALID,23.4894,VALID,360,VALID,0.500781,
2008-11-22, 03:10:04,VALID,1001.69,VALID,0,VALID,95.4602,VALID,0,VALID,23.4487,VALID,360,VALID,0.396484,
2008-11-22, 03:11:04,VALID,1001.69,VALID,0,VALID,95.4068,VALID,0,VALID,23.4505,VALID,360,VALID,0.325781,
2008-11-22, 03:12:04,VALID,1001.69,VALID,0,VALID,95.3991,VALID,0,VALID,23.4311,VALID,360,VALID,0.470703,
2008-11-22, 03:13:04,VALID,1001.73,VALID,0,VALID,95.3686,VALID,0,VALID,23.4116,VALID,360,VALID,0.367188,
2008-11-22, 03:14:04,VALID,1001.73,VALID,0,VALID,95.3763,VALID,0,VALID,23.3939,VALID,360,VALID,0.334375,
2008-11-22, 03:15:04,VALID,1001.72,VALID,0,VALID,95.3686,VALID,0,VALID,23.3727,VALID,360,VALID,0.266406,
2008-11-22, 03:16:04,VALID,1001.7,VALID,0,VALID,95.3229,VALID,0,VALID,23.3337,VALID,360,VALID,0.125391,
2008-11-22, 03:17:04,VALID,1001.68,VALID,0,VALID,95.3381,VALID,0,VALID,23.3143,VALID,360,VALID,0,
2008-11-22, 03:18:04,VALID,1001.63,VALID,0,VALID,95.3686,VALID,0,VALID,23.2754,VALID,360,VALID,0,
2008-11-22, 03:19:04,VALID,1001.63,VALID,0,VALID,95.4068,VALID,0,VALID,23.2948,VALID,360,VALID,0,
2008-11-22, 03:20:04,VALID,1001.58,VALID,0,VALID,95.4754,VALID,0,VALID,23.2948,VALID,360,VALID,0,
2008-11-22, 03:21:04,VALID,1001.56,VALID,0,VALID,95.5136,VALID,0,VALID,23.3143,VALID,360,VALID,0,
2008-11-22, 03:22:04,VALID,1001.57,VALID,0,VALID,95.5594,VALID,0,VALID,23.3532,VALID,360,VALID,0,
2008-11-22, 03:23:04,VALID,1001.56,VALID,0,VALID,95.5288,VALID,0,VALID,23.3337,VALID,360,VALID,0,
2008-11-22, 03:24:04,VALID,1001.54,VALID,0,VALID,95.4754,VALID,0,VALID,23.3337,VALID,360,VALID,0,
2008-11-22, 03:25:04,VALID,1001.52,VALID,0,VALID,95.4449,VALID,0,VALID,23.3143,VALID,360,VALID,0,
2008-11-22, 03:26:04,VALID,1001.53,VALID,0,VALID,95.4754,VALID,0,VALID,23.2931,VALID,360,VALID,0,
2008-11-22, 03:27:04,VALID,1001.54,VALID,0,VALID,95.4449,VALID,0,VALID,23.2948,VALID,360,VALID,0,
2008-11-22, 03:28:04,VALID,1001.52,VALID,0,VALID,95.4144,VALID,0,VALID,23.2754,VALID,360,VALID,0,
2008-11-22, 03:29:04,VALID,1001.53,VALID,0,VALID,95.4068,VALID,0,VALID,23.2771,VALID,360,VALID,0,
2008-11-22, 03:30:04,VALID,1001.5,VALID,0,VALID,95.422,VALID,0,VALID,23.2559,VALID,360,VALID,0,
2008-11-22, 03:31:04,VALID,1001.51,VALID,0,VALID,95.4449,VALID,0,VALID,23.2559,VALID,360,VALID,0,
2008-11-22, 03:32:04,VALID,1001.5,VALID,0,VALID,95.4678,VALID,0,VALID,23.2559,VALID,360,VALID,0,
2008-11-22, 03:33:04,VALID,1001.47,VALID,0,VALID,95.4831,VALID,0,VALID,23.2559,VALID,360,VALID,0,
2008-11-22, 03:34:04,VALID,1001.52,VALID,0,VALID,95.4602,VALID,0,VALID,23.2347,VALID,360,VALID,0,
2008-11-22, 03:35:04,VALID,1001.51,VALID,0,VALID,95.4831,VALID,0,VALID,23.2559,VALID,360,VALID,0,
2008-11-22, 03:36:04,VALID,1001.49,VALID,0,VALID,95.4754,VALID,0,VALID,23.2364,VALID,360,VALID,0,
2008-11-22, 03:37:04,VALID,1001.54,VALID,0,VALID,95.5288,VALID,0,VALID,23.2364,VALID,360,VALID,0,
2008-11-22, 03:38:04,VALID,1001.51,VALID,0,VALID,95.6662,VALID,0,VALID,23.2754,VALID,360,VALID,0,
2008-11-22, 03:39:04,VALID,1001.53,VALID,0,VALID,95.7348,VALID,0,VALID,23.3337,VALID,360,VALID,0,
2008-11-22, 03:40:04,VALID,1001.56,VALID,0,VALID,95.7272,VALID,0,VALID,23.3727,VALID,360,VALID,0,
2008-11-22, 03:41:04,VALID,1001.54,VALID,0,VALID,95.7119,VALID,0,VALID,23.4311,VALID,360,VALID,0,
2008-11-22, 03:42:04,VALID,1001.53,VALID,0,VALID,95.7043,VALID,0,VALID,23.4311,VALID,360,VALID,0,
2008-11-22, 03:43:04,VALID,1001.57,VALID,0,VALID,95.6509,VALID,0,VALID,23.4311,VALID,360,VALID,0,
2008-11-22, 03:44:04,VALID,1001.55,VALID,0,VALID,95.5975,VALID,0,VALID,23.4311,VALID,360,VALID,0,
2008-11-22, 03:45:04,VALID,1001.54,VALID,0,VALID,95.5517,VALID,0,VALID,23.3904,VALID,360,VALID,0,
2008-11-22, 03:46:04,VALID,1001.55,VALID,0,VALID,95.4831,VALID,0,VALID,23.3727,VALID,360,VALID,0,
2008-11-22, 03:47:04,VALID,1001.55,VALID,0,VALID,95.4831,VALID,0.100563,VALID,23.3107,VALID,360,VALID,0,